This is the latest recevied weather packets stored in our database for station/object KD4MBW. If no packets are shown the sender has not sent any weather packets the latest 10 day(s).
| Time | Temp. | Humidity | Pressure | Rain* | Wind** | Luminosity | Snow |
|---|---|---|---|---|---|---|---|
| 1778074347 | 21.11° C | 99% | 1016.4 hPa | 0 mm | - | 203 W/m² | - |
| 1778074044 | 21.67° C | 99% | 1016.1 hPa | 0 mm | - | 258 W/m² | - |
| 1778073741 | 21.11° C | 99% | 1016.1 hPa | 0 mm | - | 287 W/m² | - |
| 1778073439 | 21.11° C | 99% | 1016.2 hPa | 0 mm | - | 268 W/m² | - |
| 1778073135 | 20.56° C | 99% | 1015.9 hPa | 0 mm | - | 170 W/m² | - |
| 1778072832 | 20.56° C | 99% | 1016 hPa | 0 mm | - | 160 W/m² | - |
| 1778072529 | 20.56° C | 99% | 1015.8 hPa | 0 mm | - | 171 W/m² | - |
| 1778072227 | 20.56° C | 99% | 1015.8 hPa | 0 mm | - | 118 W/m² | - |
| 1778071924 | 20.56° C | 99% | 1015.8 hPa | 0 mm | - | 135 W/m² | - |
| 1778071622 | 20.56° C | 99% | 1015.8 hPa | 0 mm | - | 139 W/m² | - |
| 1778071320 | 20° C | 99% | 1015.7 hPa | 0 mm | - | 144 W/m² | - |
| 1778071017 | 20° C | 99% | 1015.7 hPa | 0 mm | - | 77 W/m² | - |
| 1778070716 | 20° C | 99% | 1015.6 hPa | 0 mm | - | 112 W/m² | - |
| 1778070412 | 20° C | 99% | 1015.3 hPa | 0 mm | - | 106 W/m² | - |
| 1778070110 | 19.44° C | 99% | 1015.5 hPa | 0 mm | - | 110 W/m² | - |
| 1778069808 | 19.44° C | 99% | 1015.3 hPa | 0 mm | - | 63 W/m² | - |
| 1778069503 | 19.44° C | 99% | 1015 hPa | 0 mm | - | 54 W/m² | - |
| 1778069202 | 19.44° C | 99% | 1015 hPa | 0 mm | - | 58 W/m² | - |
| 1778068898 | 18.89° C | 99% | 1014.9 hPa | 0 mm | - | 57 W/m² | - |
| 1778068597 | 18.89° C | 99% | 1014.9 hPa | 0 mm | - | 43 W/m² | - |
| 1778068295 | 18.89° C | 99% | 1014.8 hPa | 0 mm | - | 45 W/m² | - |
| 1778067992 | 18.89° C | 99% | 1014.7 hPa | 0 mm | - | 42 W/m² | - |
| 1778067690 | 18.89° C | 99% | 1014.6 hPa | 0 mm | - | 30 W/m² | - |
| 1778067388 | 18.89° C | 99% | 1014.8 hPa | 0 mm | - | 21 W/m² | - |
| 1778067085 | 18.89° C | 99% | 1014.8 hPa | 0 mm | - | 15 W/m² | - |
* Rain latest hour (hover to see other rain measurements)
** Current wind speed in m/s (hover to see current wind gust speed)